GSAT-14

Last updated on Nov. 18, 2019, 4:21 a.m. UTC

1 39498U 14001A   19320.86754957 -.00000069  00000-0  00000-0 0  9991
2 39498   0.0047  32.5881 0004260 219.7127 189.6874  1.00270753 21319
UTC
Height (km)
Latitude
Longitude
Inclination
Orbital Period
UTC large
Height (km)
Speed (km/s)
/
Latitude / Longitude
Inclination (degrees)
Orbital Period (minutes)
Azimuth
Elevation
Range (km)
Doppler Factor
iOS Compass Heading
iOS Angle

Next 30 passes for location: Hong Kong

Rise time Rise Azimuth (degrees) Set time Set Azimuth (degrees) Duration Max altitude (degrees)

No matching passes for this satellites